STARLINK-34612, 64773

Orbit data source: Space-Track

STARLINK-34612, 64773 is a payload satellite owned by SpaceX/Seattle (US) in LEO that was launched on Tue, 08 Jul 2025 UTC via an FALCON 9 launch vehicle from the Air Force Eastern Test Range (AFETR). Payload-class satellites include a variety of spacecraft equipped with specific instruments for various scientific and technological missions. These include communications satellites like Starlink; space stations such as the ISS; scientific satellites like the Hubble; Earth observation satellites from companies like Planet Labs, Umbra, and HawkEye 360; GPS; miniature CubeSats for education and research; and military/defense satellites.

Loading next visibility...
Identifier
64773, 2025-147U
Orbit
LEO
Country
Flag of USUS
Related business
Manufacturer
SpaceX/Seattle
Mission
Operational Commercial Communications
Bus & Motor
STARLINK V2MO, Unknown motor
Mass
575 kg wet, ~530 kg dry
Launch date (UTC)
2025-07-08 (1 year ago)
Launch vehicle
FALCON 9
Launch site
Air Force Eastern Test Range (AFETR)
Object type
Payload
Rocket body
Debris
Shape & HBR
Box + 1 Pan, 17.7 m
Radar Cross Section
41.120 m², Large (>1 m²)

Expand to show TLE details & history
Last TLE update: 11 hours ago

TLE from 11 hours ago
0 STARLINK-34612
1 64773U 25147U   26227.50521207  .00010617  00000-0  32489-3 0  9991
2 64773  53.1584 221.7707 0001321  87.0674 273.0480 15.34401802 63113
Epoch: 2026-08-15T12:07Z
TLE epoch observation values (Epoch: 2026-08-15T12:07:30.322Z)
Latitude
-0.00002°
Longitude
75.97922°
Altitude
463.551 km
Speed
7.636 km/s
True Right ascension
14h 47m 04s
True Declination
0° 00' 00"
Sunlit
Object was in daylight at epoch
Visualization orbit readout
Latitude
Unknown
Longitude
Unknown
Altitude
Unknown
Speed
Unknown
Apparent Right ascension
Unknown
Apparent Declination
Unknown
Sunlit
N/A
Visualization observer readout
Local Sidereal Time
13:42:10
Azimuth
Unknown
Elevation
Unknown
Doppler factor
Unknown
Orbital elements
Apogee altitude
463.859 km
Perigee altitude
462.051 km
Semi-major axis
6,841.092 km
Eccentricity
0.00013
Inclination
53.1584°
RAAN
221.7707°
Arg. of periapsis
87.0674°
True anomaly
273.03288°
Mean anomaly
273.048°
Eccentric anomaly
273.04044°
Mean motion
3.83579 °/min
Orbital period
93.85 mins
BSTAR
0.00032489
Loading maneuver chart data...
Computing Atmospheric mass density...
Loading historical data...
Loading historical data...
Loading historical data...
Loading historical data...
Loading historical data...
Loading historical data...
Loading historical data...

Documentation

Showing up to 5 results
|